www.pogodaiklimat.ru

Погода и климат >> Архив погоды >> Иран >> Кашан


ПОГОДА в Кашане

  • Прогноз погоды в Кашане
  • Монитор погоды в Кашане

АРХИВ ПОГОДЫ в Кашане

Время (UTC), дата Ветер
(напр.,м/с)
 
Видим.   Явления Облачность Т
(С)
Тd
(С)
f
(%)
Тe
(С)
Тes
(С)
Комфортность P
(гПа)
Po
(гПа)
Тmin
(С)
Tmax
(С)
R
(мм)
R24
(мм)
S
(см)
12 17.04 З 7 10 км 5/5 1200 м
[Sc]
+32.9 -2.8 10 +29 +30 жарко 1001.6 898.5
15 17.04 ЮЗ 4 10 км 6/4 1200 м
[Sc Ci sp]
+28.6 -1.5 14 +26 +26 жарко 1003.5 899.7 +33.4
18 17.04 ЮВ 2 10 км 4/0
[Ci sp]
+24.4 -0.7 19 +23 +23 комфорт 1004.0 901.0
21 17.04 штиль 0 10 км 4/0
[Ci sp]
+23.5 -2.2 18 +22 +22 комфорт 1002.5 900.6
00 18.04 Ю 1 10 км ясно +21.2 -1.4 22 +21 +21 комфорт 1002.5 900.6
03 18.04 штиль 0 10 км 5/0
[Ac trans]
+19.2 +0.2 28 +19 +20 1005.4 902.2 +16.3
06 18.04 З 4 10 км 9/4 1200 м
[Sc As trans]
+23.0 +2.5 26 +23 +25 комфорт 1008.3 904.8
09 18.04 З 5 10 км 10/5 1050 м
[Cb calv As op]
+21.2 +5.5 36 +22 +23 комфорт 1009.2 905.2
12 18.04 С 6 10 км 8/4 1200 м
[Sc As op]
+20.9 +6.4 39 +22 +23 комфорт 1008.2 903.9
15 18.04 В 2 10 км 6/4 1200 м
[Sc Ac trans]
+19.0 +7.1 46 +20 +20 1009.9 904.8 +24.5 666
18 18.04 В 1 10 км ясно +16.4 +11.1 71 +17 +17 1010.3 905.5
21 18.04 штиль 0 10 км 3/0
[Ac trans]
+13.8 +11.7 87 +13 +13 1010.0 904.5
00 19.04 З 1 10 км 3/0
[Ac trans]
+14.4 +10.4 77 +15 +15 1007.9 902.6
03 19.04 В 1 10 км {дождь} 5/1 1200 м
[Sc Ac trans]
+13.8 +13.6 99 +14 +15 1008.3 902.7 +12.8 666
06 19.04 СВ 2 10 км {дождь} 9/4 1000 м
[Sc As trans]
+13.4 +10.9 85 +13 +17 1012.3 905.6 0.6
09 19.04 ЮЗ 3 10 км 8/4 1200 м
[Sc As trans]
+16.8 +10.4 66 +17 +22 1010.8 904.4 666
12 19.04 ЮЗ 4 10 км 4/4 1200 м
[Sc]
+20.5 +8.1 45 +22 +25 комфорт 1007.1 901.8
15 19.04 ЮЗ 1 10 км 1/1 1200 м
[Sc]
+20.4 +7.4 43 +23 +23 комфорт 1006.0 900.6 +22.2
18 19.04 ЮЗ 1 10 км ясно +16.8 +9.2 61 +18 +18 1007.3 901.2
21 19.04 штиль 0 10 км ясно +14.1 +8.9 71 +14 +14 1006.2 900.3
00 20.04 Ю 3 10 км ясно +14.1 +6.9 62 +13 +13 1005.6 900.3
03 20.04 ЮЗ 1 10 км ясно +13.6 +7.6 67 +14 +15 1006.4 901.0 +11.2 666
06 20.04 СВ 1 10 км 8/8 900 м
[Cb calv]
+21.3 +3.5 31 +21 +24 комфорт 1006.1 901.3
09 20.04 З 8 10 км 9/6 900 м
[Cb calv As trans]
+23.3 +0.4 22 +22 +23 комфорт 1006.1 901.1
12 20.04 СЗ 2 10 км 5/5 900 м
[Cb calv]
+25.8 -0.3 18 +24 +28 комфорт 1004.1 899.7
15 20.04 З 7 10 км 5/5 900 м
[Cb calv]
+21.9 -2.8 19 +21 +21 комфорт 1006.1 900.7 +26.1
18 20.04 ЮЗ 3 10 км ясно +19.2 -0.8 26 +19 +19 1007.4 902.8
21 20.04 ЮЗ 2 10 км ясно +14.3 -0.6 36 +14 +14 1008.8 903.5
00 21.04 ЮЗ 1 10 км ясно +11.6 -0.3 44 +12 +12 1008.2 903.0
03 21.04 штиль 0 10 км ясно +12.3 +1.3 47 +12 +14 1009.6 903.7 +10.1
06 21.04 С 3 10 км ясно +18.9 -2.1 24 +19 +30 1009.5 904.2
09 21.04 С 1 10 км ясно +22.4 -2.4 19 +21 +44 комфорт 1007.8 902.5
12 21.04 СВ 3 10 км ясно +24.1 -4.2 15 +22 +30 комфорт 1005.3 900.0
15 21.04 СЗ 1 10 км ясно +22.0 -4.2 17 +21 +21 комфорт 1005.1 899.6 +24.6
18 21.04 ЮЗ 1 10 км ясно +17.9 -1.4 27 +19 +19 1006.0 900.9
21 21.04 Ю 2 10 км ясно +15.5 -2.5 29 +16 +16 1005.4 900.5
00 22.04 штиль 0 10 км ясно +12.3 -3.5 33 +12 +12 1005.1 900.0
03 22.04 ЮЗ 2 10 км ясно +13.4 -1.7 35 +13 +14 1005.5 900.2 +11.1 666
06 22.04 СВ 1 10 км 8/4 1200 м
[Sc Ac und]
+18.8 -0.1 28 +20 +25 1004.7 899.7
09 22.04 СЗ 2 10 км 9/5 1200 м
[Sc As trans]
+21.7 +2.4 28 +22 +27 комфорт 1003.2 898.5 666
12 22.04 З 1 10 км 5/5 1200 м
[Sc diur, vesp]
+24.7 -2.8 16 +23 +28 комфорт 1001.1 896.5
15 22.04 ЮЗ 7 10 км ясно +22.8 -14.8 7 +20 +20 1002.8 897.8 +26.5
18 22.04 В 4 10 км ясно +15.3 +2.1 41 +14 +14 1006.6 901.0
21 22.04 С 2 10 км ясно +12.9 -1.4 37 +13 +13 1007.4 901.8
00 23.04 З 1 10 км ясно +10.7 -3.4 37 +11 +11 1008.8 903.1
03 23.04 штиль 0 10 км ясно +9.6 -2.4 43 +9 +11 1011.2 904.8 +7.9
06 23.04 СЗ 2 10 км ясно +15.4 -6.8 21 +16 +28 опасность
простуды
1012.6 905.7
09 23.04 СВ 4 10 км 3/3 1200 м
[Sc]
+18.7 -8.5 15 +18 +28 1011.2 904.6
12 23.04 З 6 10 км 5/5 1200 м
[Sc]
+19.6 -9.6 13 +19 +21 1011.6 904.7
15 23.04 С 6 10 км 8/4 1200 м
[Sc As trans]
+13.5 +0.5 41 +12 +12 1015.8 907.3 +20.4 666
18 23.04 СЗ 3 10 км 8/5 1050 м
[Cb calv As trans]
+11.8 +0.2 45 +11 +11 1018.8 910.7
21 23.04 СЗ 1 10 км ясно +8.3 -3.5 43 +8 +8 1020.5 912.1
00 24.04 штиль 0 10 км ясно +6.8 -2.6 51 +6 +6 1021.5 912.9
03 24.04 В 2 10 км ясно +7.5 -6.6 36 +6 +7 1024.2 914.3 +5.6
06 24.04 В 2 10 км ясно +12.1 -5.9 28 +12 +25 опасность
простуды
1023.9 914.6
09 24.04 СЗ 4 10 км 3/3 1050 м
[Sc]
+16.1 -6.2 21 +16 +25 1021.9 912.9

 

Местоположение метеостанции Кашан (Иран): широта 33.98 долгота 51.45 высота над уровнем моря 982 м.

В архиве по умолчанию представлена погода в Кашане за последнюю неделю. Архивные данные за месяц целиком и за предыдущие месяцы, начиная с января 2011 года, Вы можете получить, выбрав интересующий диапазон дат из раскрывающегося списка и нажав кнопку "Ввод!".


*Определитесь, кто Вы:
робот инопланетянин человек

Внимание! Время в таблицах - всемирное. Для получения местного времени необходимо прибавить поправку, которая равна 3.5 ч.

Смотрите также архив погоды в соседних городах и на ближайших метеорологических станциях:

Погода в Араке (Иран) (155 км)
Погода в Исфахане (Иран) (169 км)
Погода в Элигудерзе (Иран) (176 км)
Погода в Тегеране (Иран) (189 км)
Погода в Шехре-Корде (Иран) (197 км)
Погода в Семнане (Иран) (248 км)
Погода в Хамадане (Иран) (285 км)
Погода в Казвине (Иран) (285 км)
Погода в Хорремабаде (Иран) (290 км)
Погода в Ноушехре (Иран) (297 км)

Пояснения к столбцам:

Ветер - указаны скорость ветра в м/с - средняя за 10 мин, порывы в срок и между сроками (в фигурных скобках) и направление, откуда дует ветер: С - северный, СВ - северо-восточный, В - восточный, ЮВ - юго-восточный, Ю - южный, ЮЗ - юго-западный, З - западный, СЗ - северо-западный.
Видимость - горизонтальная дальность видимости в метрах или километрах. При видимости от 1 до 10 км при отсутствии осадков обычно наблюдается дымка, при ухудшении видимости до 1 км и менее - туман. В сухую погоду видимость может ухудшаться дымом, пылью или мглою.
Явления - указаны атмосферные явления, наблюдавшиеся в срок или в последний час перед сроком; фигурными скобками обозначены явления, наблюдавшиеся между сроками (за 1-3 часа до срока); квадратными скобками обозначены град или гололедные отложения с указанием их диаметра в мм.
Облачность - указаны через наклонную черту общая и нижняя облачность в баллах и высота нижней границы облаков в метрах; квадратными скобками обозначены формы облаков: Ci - перистые, Cs - перисто-слоистые, Cc - перисто-кучевые, Ac - высококучевые, As - высокослоистые, Sc - слоисто-кучевые, Ns - слоисто-дождевые, Cu - кучевые, Cb - кучево-дождевые. Подробнее классификацию облаков см. в Атласе облаков (PDF).
T - Температура воздуха - температура, измеренная на высоте 2 м над землей.
Td - Температура точки росы - температура, при понижении до которой содержащийся в воздухе водяной пар достигнет насыщения.
f - Относительная влажность воздуха - влажноcть воздуха, измеренная на высоте 2 м над землей.
Te - Эффективная температура - температура, которую ощущает одетый по сезону человек в тени. Характеристика душности погоды. При расчете учитывается влияние влажности воздуха и скорости ветра на теплоощущения человека.
Tes - Эффективная температура на солнце - температура, которую ощущает человек, с поправкой на солнечный нагрев. Характеристика знойности погоды. Зависит от высоты солнца над горизонтом, облачности и скорости ветра. Ночью, в пасмурную погоду, а также при ветре 12 м/с и более поправка равна нулю.
P - Атмосферное давление - приведенное к уровню моря атмосферное давление.
Po - Атмосферное давление - измеренное на уровне метеостанции атмосферное давление.
Tmin - Минимальная температура - минимум температуры воздуха на высоте 2 м над землей.
Tmax - Максимальная температура - максимум температуры воздуха на высоте 2 м над землей.
R - Количество осадков - Количество выпавших осадков за период времени, мм. При наведении курсора мыши на число - период времени, за который выпало указанное количество осадков.
R24 - Количество осадков - Количество выпавших осадков за 24 часа, мм.
S - Снежный покров - Высота снежного покрова, см. При наведении курсора мыши на число - состояние снежного покрова и степень покрытия местности в баллах.